Погода в Новопанском

Россия / Рязанская область     54°20′24″N   39°03′47″E
темп.,
°C
ветер,
м/с
пор.,
м/с
влажн.,
%
обл.,
%
осадки,
мм/ч
давл.,
гПа
погр.,
м
25 февраля, чт
чт2500:00−14ююз4894100 0.4 1031315
03:00−12ююз51095100 0.7 1028311
06:00−10юз61195100 1.1 1023347
09:00−2зюз91795100 3.2 1019602
12:00+2з817100100 1.1 1015499
15:00+2зсз615100100 1.1 1014425
18:00+2зсз511100100 0.0 1014275
21:00+2з46100100 0.3 1015116
26 февраля, пт
пт2600:00+2зсз51099100 0.0 1015274
03:00+2з51399100 0.6 1015318
06:00+2з61399100 0.2 1013304
09:00+2з71399100 0.6 1011348
12:00+2зюз716100100 0.0 1009517
15:00+2з71599100 0.1 1007448
18:00+2з71698100 0.1 1005564
21:00+2з71593100 0.1 1006638
27 февраля, сб
сб2700:00+1з7168796 0.0 1004666
03:00−1з6148853 0.0 1004439
06:00+1з6139379 0.0 1003558
09:00+1з7129790 0.2 1002620
12:00+1зсз61298100 0.1 1001637
15:00+1зсз7139799 0.2 1002713
18:00−6ссз81289100 0.6 1004753
21:00−9с71189100 0.7 1008775
28 февраля, вс
вс2800:00−10с71290100 0.1 1011714
03:00−11с71290100 0.1 1014652
06:00−12с61192100 0.1 1015542
09:00−12ссз5992100 0.1 1017503
12:00−10ссз5890100 0.0 1018527
15:00−8ссз5890100 0.1 1019613
18:00−8ссз4992100 0.1 1020521
21:00−7с4893100 0.1 1022608
1 марта, пн
пн100:00−7с4793100 0.1 1023548
03:00−8ссз3793100 0.1 1025373
06:00−10ссз339583 0.0 102681
09:00−9сз369686 0.1 1027186
12:00−5сз359280 0.0 1028385
15:00−3з368881 0.0 1027486
18:00−4з479447 0.0 1027156
21:00−2зсз5109473 0.0 1026491